1519711201.19,7364,3.13,71490.5,-22.81,-29.07,-28.75,0,*5B
1519711202.46,7365,3.13,71486.8,-22.81,-29.07,-28.63,0,*5D
1519711203.75,7366,3.13,71488.8,-22.81,-28.75,-28.43,0,*58
1519711205.05,7367,3.13,71492.3,-22.81,-28.63,-28.25,0,*5E
1519711206.34,7368,3.13,71494.0,-22.81,-28.75,-28.25,0,*56
1519711207.62,7369,3.13,71490.5,-22.81,-28.91,-28.31,0,*58
1519711208.88,7370,3.13,71494.8,-22.81,-29.07,-28.47,0,*5F
1519711210.18,7371,3.13,71488.5,-22.81,-29.35,-28.75,0,*5E
1519711211.46,7372,3.13,71490.3,-22.81,-29.29,-28.79,0,*5C
1519711212.75,7373,3.13,71490.0,-22.81,-29.17,-28.79,0,*50
1519711214.04,7374,3.13,71486.0,-22.81,-28.91,-28.47,0,*55
1519711215.34,7375,3.13,71492.3,-22.81,-28.91,-28.25,0,*50
1519711216.63,7376,3.13,71486.5,-22.81,-28.91,-28.43,0,*53
1519711217.9,7377,3.13,71490.3,-22.81,-28.75,-28.31,0,*5D
1519711219.17,7378,3.13,71496.3,-22.81,-28.97,-28.47,0,*5F
1519711220.45,7379,3.13,71494.8,-22.81,-29.13,-28.75,0,*52
1519711221.74,7380,3.13,71494.0,-22.81,-29.17,-28.75,0,*50
1519711223.01,7381,3.13,71496.8,-22.81,-29.35,-28.97,0,*5D
1519711224.27,7382,3.13,71490.5,-22.81,-29.51,-29.07,0,*54
1519711225.57,7383,3.13,71484.0,-22.81,-29.29,-28.91,0,*54
1519711226.84,7384,3.13,71492.5,-22.81,-29.07,-28.63,0,*52
1519711228.1,7385,3.13,71492.3,-22.81,-28.97,-28.59,0,*52
1519711229.4,7386,3.13,71494.3,-22.81,-29.13,-28.63,0,*55
1519711230.69,7387,3.13,71492.8,-22.81,-29.51,-29.13,0,*54
1519711231.93,7388,3.13,71490.5,-22.81,-29.45,-29.07,0,*5B
1519711233.2,7389,3.13,71488.5,-22.81,-29.51,-29.07,0,*5F
1519711234.47,7390,3.13,71492.5,-22.81,-29.51,-28.97,0,*5F
1519711235.71,7391,3.13,71492.0,-22.81,-29.45,-28.97,0,*5B
1519711236.97,7392,3.13,71488.3,-22.81,-29.29,-28.97,0,*52
1519711238.23,7393,3.13,71492.3,-22.81,-29.29,-28.97,0,*53
1519711239.52,7394,3.13,71492.3,-22.77,-29.29,-28.91,0,*5B
1519711240.81,7395,3.13,71496.5,-22.81,-29.17,-28.79,0,*58
1519711242.09,7396,3.13,71492.5,-22.81,-29.29,-28.79,0,*56
1519711243.38,7397,3.13,71492.8,-22.81,-29.13,-28.75,0,*52
1519711244.66,7398,3.13,71488.8,-22.81,-29.13,-28.75,0,*5D
1519711245.92,7399,3.13,71492.0,-22.81,-29.07,-28.79,0,*55
1519711247.18,7400,3.13,71488.0,-22.81,-28.97,-28.75,0,*56
1519711248.45,7401,3.13,71490.0,-22.81,-28.97,-28.63,0,*50
1519711249.72,7402,3.13,71486.0,-22.77,-28.91,-28.53,0,*5F
1519711250.99,7403,3.13,71494.5,-22.77,-28.91,-28.53,0,*5E
1519711252.23,7404,3.13,71492.8,-22.75,-28.79,-28.37,0,*5F
1519711253.48,7405,3.13,71498.3,-22.77,-28.69,-28.15,0,*5D
1519711254.74,7406,3.13,71494.5,-22.75,-28.47,-28.21,0,*57
1519711256.01,7407,3.13,71492.0,-22.81,-28.31,-28.09,0,*56
1519711257.28,7408,3.13,71496.0,-22.81,-28.31,-28.05,0,*55
1519711258.55,7409,3.13,71490.8,-22.81,-28.25,-27.93,0,*51
1519711259.81,7410,3.13,71494.5,-22.81,-28.25,-27.93,0,*59
1519711261.05,7411,3.13,71494.8,-22.81,-28.15,-27.93,0,*5B
1519711262.32,7412,3.13,71494.3,-22.77,-28.21,-27.71,0,*5A
1519711263.59,7413,3.13,71496.8,-22.77,-28.37,-27.83,0,*51
1519711264.86,7414,3.13,71488.5,-22.77,-28.59,-27.89,0,*54
1519711266.12,7415,3.13,71490.8,-22.75,-28.47,-28.05,0,*53
1519711267.36,7416,3.13,71494.8,-22.75,-28.31,-28.05,0,*51
1519711268.66,7417,3.13,71494.5,-22.77,-28.21,-27.99,0,*59
1519711269.93,7418,3.13,71496.0,-22.77,-28.21,-27.89,0,*57
1519711271.18,7419,3.13,71496.0,-22.75,-28.21,-27.67,0,*54
1519711272.45,7420,3.13,71496.5,-22.77,-28.69,-27.99,0,*51
1519711273.71,7421,3.13,71502.5,-22.75,-28.75,-28.09,0,*59
1519711274.98,7422,3.13,71492.5,-22.75,-28.79,-28.21,0,*5C
1519711276.22,7423,3.13,71494.5,-22.75,-28.97,-28.47,0,*5D
1519711277.48,7424,3.13,71494.5,-22.77,-28.75,-28.53,0,*51
1519711278.76,7425,3.13,71494.0,-22.77,-28.53,-28.05,0,*57
1519711279.97,7426,3.13,71498.0,-22.75,-28.31,-27.93,0,*52
1519711281.24,7427,3.13,71492.3,-22.77,-28.37,-27.83,0,*56
1519711282.47,7428,3.13,71492.8,-22.75,-28.47,-27.93,0,*5D
1519711283.69,7429,3.13,71498.5,-22.75,-28.53,-27.93,0,*59
1519711284.93,7430,3.13,71498.8,-22.75,-28.53,-27.99,0,*5B
1519711286.18,7431,3.13,71492.3,-22.75,-28.53,-28.05,0,*50
1519711287.42,7432,3.13,71498.0,-22.75,-28.53,-28.05,0,*53
1519711288.67,7433,3.13,71488.5,-22.75,-28.79,-28.15,0,*5B
1519711289.91,7434,3.13,71498.3,-22.75,-28.69,-28.21,0,*5A
1519711291.18,7435,3.13,71492.8,-22.75,-28.63,-28.21,0,*51
1519711292.48,7436,3.13,71502.5,-22.77,-28.59,-28.21,0,*59
1519711293.73,7437,3.13,71492.3,-22.75,-28.53,-28.05,0,*56
1519711294.99,7438,3.13,71494.5,-22.75,-28.47,-27.99,0,*56
1519711296.28,7439,3.13,71498.0,-22.73,-28.47,-27.99,0,*51
1519711297.53,7440,3.13,71492.5,-22.71,-28.53,-28.05,0,*52
1519711298.82,7441,3.13,71500.3,-22.73,-28.63,-27.99,0,*58
1519711300.09,7442,3.13,71496.3,-22.73,-28.63,-28.15,0,*50
1519711301.39,7443,3.13,71498.5,-22.73,-28.79,-28.21,0,*5D
1519711302.66,7444,3.13,71498.3,-22.73,-28.79,-28.37,0,*5D
1519711303.95,7445,3.13,71500.0,-22.73,-29.01,-28.63,0,*53
1519711305.21,7446,3.13,71498.5,-22.71,-28.85,-28.63,0,*5F
1519711306.47,7447,3.13,71496.3,-22.73,-28.63,-28.37,0,*55
1519711307.74,7448,3.13,71494.0,-22.73,-28.63,-28.15,0,*5A
1519711309.02,7449,3.13,71492.3,-22.73,-28.63,-28.15,0,*5B
1519711310.28,7450,3.13,71500.0,-22.73,-28.47,-28.15,0,*55
1519711311.53,7451,3.13,71504.0,-22.71,-28.37,-28.05,0,*50
1519711312.79,7452,3.19,71502.5,-22.73,-28.15,-27.83,0,*50
1519711314.03,7453,3.13,71498.8,-22.73,-28.15,-27.77,0,*5A
1519711315.27,7454,3.13,71498.8,-22.73,-28.31,-27.77,0,*5B
1519711316.5,7455,3.19,71502.0,-22.73,-28.31,-27.93,0,*50
1519711317.72,7456,3.13,71498.8,-22.71,-28.31,-27.93,0,*51
1519711318.98,7457,3.13,71496.0,-22.73,-28.47,-27.93,0,*53
1519711320.24,7458,3.13,71498.3,-22.71,-28.47,-27.99,0,*54
1519711321.49,7459,3.13,71494.3,-22.71,-28.37,-27.99,0,*52
1519711322.76,7460,3.13,71494.8,-22.71,-28.47,-28.05,0,*55
1519711324.01,7461,3.13,71498.0,-22.71,-28.53,-28.05,0,*51
1519711325.28,7462,3.13,71498.5,-22.71,-28.79,-28.21,0,*5C
1519711326.5,7463,3.13,71500.3,-22.71,-28.97,-28.53,0,*58
1519711327.76,7464,3.13,71498.3,-22.73,-28.85,-28.47,0,*5B
1519711329.03,7465,3.13,71494.3,-22.71,-28.79,-28.47,0,*5B
1519711330.28,7466,3.13,71498.8,-22.73,-28.53,-28.15,0,*55
1519711331.53,7467,3.13,71498.8,-22.71,-28.53,-28.05,0,*57
1519711332.8,7468,3.13,71494.3,-22.71,-28.63,-28.05,0,*5B
1519711334.08,7469,3.13,71496.5,-22.71,-28.79,-28.21,0,*57
1519711335.32,7470,3.13,71496.3,-22.71,-28.79,-28.37,0,*58
1519711336.56,7471,3.13,71498.3,-22.71,-28.85,-28.47,0,*5D
1519711337.85,7472,3.13,71496.8,-22.69,-28.75,-28.25,0,*5C
1519711339.15,7473,3.13,71492.8,-22.69,-28.79,-28.25,0,*51
1519711340.42,7474,3.13,71492.5,-22.69,-28.79,-28.31,0,*53
1519711341.68,7475,3.13,71496.0,-22.65,-28.75,-28.31,0,*52
1519711342.97,7476,3.13,71498.5,-22.65,-28.79,-28.25,0,*58
1519711344.24,7477,3.13,71496.8,-22.69,-28.79,-28.31,0,*50
1519711345.53,7478,3.13,71498.0,-22.65,-28.91,-28.47,0,*54
1519711346.81,7479,3.13,71496.8,-22.69,-29.01,-28.75,0,*50
1519711348.08,7480,3.13,71502.0,-22.69,-28.97,-28.59,0,*56
1519711349.36,7481,3.13,71502.8,-22.65,-28.79,-28.43,0,*50
1519711350.64,7482,3.13,71504.3,-22.65,-28.75,-28.43,0,*5F
1519711351.91,7483,3.13,71500.8,-22.69,-28.75,-28.31,0,*57
1519711353.2,7484,3.13,71502.5,-22.69,-28.59,-28.09,0,*55
1519711354.46,7485,3.13,71500.8,-22.65,-28.59,-28.15,0,*55
1519711355.73,7486,3.13,71502.3,-22.69,-28.75,-28.15,0,*54
1519711357.02,7487,3.13,71502.8,-22.69,-28.79,-28.43,0,*5A
1519711358.32,7488,3.13,71500.8,-22.69,-28.91,-28.63,0,*51
1519711359.61,7489,3.13,71500.3,-22.65,-29.01,-28.63,0,*54
1519711360.9,7490,3.13,71504.3,-22.65,-28.79,-28.59,0,*5B
1519711362.19,7491,3.13,71498.5,-22.65,-28.91,-28.59,0,*5C
1519711363.48,7492,3.13,71498.3,-22.69,-28.79,-28.43,0,*5E
1519711364.76,7493,3.13,71498.5,-22.65,-28.79,-28.43,0,*53
1519711366.05,7494,3.13,71498.5,-22.65,-28.91,-28.43,0,*52
1519711367.33,7495,3.13,71500.8,-22.65,-28.63,-28.43,0,*5E
1519711368.56,7496,3.13,71498.0,-22.65,-28.31,-27.93,0,*58
1519711369.82,7497,3.13,71500.0,-22.65,-28.25,-27.93,0,*5C
1519711371.06,7498,3.13,71496.5,-22.65,-28.31,-27.89,0,*5D
1519711372.32,7499,3.13,71498.0,-22.65,-28.25,-27.77,0,*58
1519711373.58,7500,3.13,71496.3,-22.65,-28.43,-27.89,0,*58
1519711374.86,7501,3.13,71500.8,-22.65,-28.75,-28.09,0,*5B
1519711376.12,7502,3.13,71498.0,-22.65,-28.97,-28.59,0,*51
1519711377.4,7503,3.13,71492.8,-22.65,-29.17,-28.75,0,*57
1519711378.68,7504,3.13,71502.0,-22.65,-29.13,-28.75,0,*54
1519711379.95,7505,3.13,71498.8,-22.65,-29.29,-28.79,0,*50
1519711381.21,7506,3.13,71502.3,-22.63,-29.13,-28.75,0,*50
1519711382.47,7507,3.13,71494.5,-22.63,-29.13,-28.75,0,*51
1519711383.73,7508,3.13,71498.0,-22.61,-29.07,-28.75,0,*59
1519711384.99,7509,3.13,71500.3,-22.63,-29.13,-28.59,0,*51
1519711386.21,7510,3.13,71498.5,-22.63,-28.97,-28.69,0,*57
1519711387.44,7511,3.13,71498.5,-22.63,-28.75,-28.53,0,*53
1519711388.71,7512,3.13,71496.3,-22.63,-28.59,-28.21,0,*5B
1519711389.99,7513,3.13,71500.5,-22.63,-28.21,-28.05,0,*53
1519711391.23,7514,3.13,71502.8,-22.63,-28.05,-27.89,0,*59
1519711392.44,7515,3.13,71500.5,-22.63,-27.93,-27.71,0,*5F
1519711393.69,7516,3.13,71498.8,-22.63,-28.05,-27.71,0,*5C
1519711394.93,7517,3.13,71500.8,-22.63,-28.05,-27.71,0,*5D
1519711396.16,7518,3.13,71500.5,-22.61,-27.89,-27.71,0,*5B
1519711397.38,7519,3.13,71500.3,-22.63,-27.89,-27.55,0,*5E
1519711398.64,7520,3.13,71500.0,-22.61,-27.89,-27.39,0,*5C
1519711399.88,7521,3.13,71500.3,-22.63,-28.09,-27.51,0,*56
1519711401.14,7522,3.13,71502.8,-22.61,-28.09,-27.67,0,*52
1519711402.41,7523,3.13,71502.8,-22.61,-28.25,-27.67,0,*5D
1519711403.68,7524,3.13,71502.3,-22.61,-28.43,-27.67,0,*5A
1519711404.92,7525,3.13,71500.3,-22.63,-28.59,-27.89,0,*52
1519711406.18,7526,3.13,71502.5,-22.63,-28.75,-28.09,0,*58
1519711407.47,7527,3.13,71502.8,-22.61,-28.75,-28.09,0,*5B
1519711408.74,7528,3.13,71500.5,-22.61,-28.85,-28.21,0,*51
1519711409.95,7529,3.13,71502.8,-22.63,-28.97,-28.37,0,*56
1519711411.19,7530,3.13,71504.5,-22.61,-28.97,-28.53,0,*5E
1519711412.46,7531,3.13,71502.8,-22.61,-29.07,-28.59,0,*5D
1519711413.75,7532,3.13,71500.3,-22.61,-28.91,-28.59,0,*50
1519711415.04,7533,3.13,71496.3,-22.61,-28.75,-28.25,0,*50
1519711416.3,7534,3.13,71498.3,-22.61,-28.85,-28.43,0,*58
1519711417.55,7535,3.13,71498.0,-22.63,-28.97,-28.59,0,*53
1519711418.81,7536,3.13,71502.8,-22.61,-28.97,-28.59,0,*52
1519711420.07,7537,3.19,71506.3,-22.61,-29.13,-28.69,0,*5D
1519711421.35,7538,3.13,71502.0,-22.61,-29.29,-28.75,0,*56
1519711422.61,7539,3.13,71504.0,-22.61,-29.23,-28.75,0,*5D
1519711423.9,7540,3.13,71498.0,-22.61,-29.13,-28.59,0,*5E
1519711425.18,7541,3.13,71496.3,-22.61,-29.29,-28.75,0,*58
1519711426.44,7542,3.13,71496.5,-22.61,-29.29,-28.85,0,*54
1519711427.71,7543,3.13,71496.0,-22.63,-29.29,-28.91,0,*52
1519711428.98,7544,3.13,71496.3,-22.61,-29.39,-28.85,0,*53
1519711430.22,7545,3.13,71498.8,-22.61,-29.07,-28.85,0,*5F
1519711431.49,7546,3.13,71498.3,-22.63,-28.91,-28.59,0,*51
1519711432.76,7547,3.13,71496.3,-22.63,-28.75,-28.43,0,*51
1519711434.05,7548,3.13,71498.3,-22.61,-28.59,-28.21,0,*56
1519711435.34,7549,3.13,71496.3,-22.61,-28.43,-28.05,0,*5A
1519711436.63,7550,3.13,71496.5,-22.61,-28.21,-27.83,0,*57
1519711437.86,7551,3.13,71498.0,-22.61,-27.89,-27.55,0,*50
1519711439.1,7552,3.13,71494.8,-22.61,-27.89,-27.51,0,*57
1519711440.36,7553,3.13,71490.3,-22.61,-27.89,-27.39,0,*58
1519711441.62,7554,3.13,71490.5,-22.63,-27.83,-27.39,0,*57
1519711442.89,7555,3.13,71498.0,-22.61,-27.89,-27.35,0,*52
1519711444.16,7556,3.13,71496.3,-22.61,-28.21,-27.67,0,*5B
1519711445.42,7557,3.13,71494.5,-22.61,-28.37,-27.83,0,*57
1519711446.69,7558,3.13,71496.3,-22.61,-28.37,-27.83,0,*58
1519711447.95,7559,3.13,71498.8,-22.59,-28.21,-27.77,0,*5E
1519711449.22,7560,3.13,71498.8,-22.61,-28.59,-27.89,0,*51
1519711450.5,7561,3.13,71494.3,-22.61,-28.59,-28.09,0,*57
1519711451.77,7562,3.13,71494.8,-22.61,-28.25,-27.93,0,*53
1519711453.04,7563,3.13,71496.3,-22.59,-28.05,-27.67,0,*50
1519711454.27,7564,3.13,71500.8,-22.59,-28.15,-27.77,0,*57
1519711455.5,7565,3.13,71498.5,-22.59,-28.31,-27.77,0,*50
1519711456.76,7566,3.13,71498.5,-22.59,-28.21,-27.77,0,*52
1519711458.0,7567,3.13,71496.8,-22.59,-28.15,-27.77,0,*54
1519711459.23,7568,3.13,71498.8,-22.59,-27.89,-27.51,0,*55
1519711460.47,7569,3.13,71494.3,-22.61,-27.67,-27.51,0,*5F
1519711461.74,7570,3.13,71496.0,-22.61,-27.67,-27.39,0,*59
1519711462.98,7571,3.13,71496.8,-22.61,-27.67,-27.51,0,*56
1519711464.21,7572,3.13,71498.8,-22.59,-27.89,-27.51,0,*5E
1519711465.5,7573,3.13,71496.3,-22.59,-28.05,-27.61,0,*57
1519711466.8,7574,3.13,71502.5,-22.61,-28.25,-27.83,0,*55
1519711468.03,7575,3.13,71490.3,-22.59,-27.89,-27.67,0,*5C
1519711469.29,7576,3.13,71496.3,-22.59,-27.51,-27.45,0,*5A
1519711470.58,7577,3.13,71498.0,-22.61,-27.39,-27.19,0,*57
1519711471.79,7578,3.13,71498.3,-22.63,-27.51,-27.07,0,*5B
1519711473.05,7579,3.13,71494.3,-22.61,-27.35,-27.03,0,*5E
1519711474.34,7580,3.13,71498.0,-22.61,-27.35,-26.93,0,*50
1519711475.62,7581,3.13,71496.0,-22.61,-27.23,-26.71,0,*5A
1519711476.9,7582,3.13,71502.8,-22.61,-27.35,-26.71,0,*5E
1519711478.14,7583,3.13,71500.8,-22.63,-27.39,-26.87,0,*58
1519711479.4,7584,3.13,71502.3,-22.61,-27.51,-26.93,0,*56
1519711480.64,7585,3.13,71496.3,-22.61,-27.55,-27.07,0,*5F
1519711481.88,7586,3.13,71500.8,-22.63,-27.71,-27.35,0,*59
1519711483.14,7587,3.13,71496.3,-22.61,-27.71,-27.39,0,*56
1519711484.38,7588,3.13,71500.5,-22.61,-27.71,-27.51,0,*57
1519711485.62,7589,3.13,71504.0,-22.61,-27.67,-27.51,0,*51
1519711486.86,7590,3.13,71494.5,-22.61,-27.71,-27.55,0,*5A
1519711488.09,7591,3.13,71494.3,-22.63,-27.83,-27.67,0,*55
1519711489.36,7592,3.13,71498.8,-22.61,-27.83,-27.67,0,*54
1519711490.63,7593,3.13,71502.8,-22.61,-28.05,-27.67,0,*54
1519711491.89,7594,3.13,71502.0,-22.61,-27.83,-27.67,0,*52
1519711493.17,7595,3.13,71494.5,-22.59,-27.35,-27.35,0,*52
1519711494.44,7596,3.13,71502.5,-22.59,-27.03,-26.97,0,*5D
1519711495.7,7597,3.13,71492.8,-22.59,-26.81,-26.65,0,*5A
1519711496.94,7598,3.13,71502.5,-22.59,-27.13,-26.65,0,*5F
1519711498.2,7599,3.13,71500.8,-22.59,-27.45,-26.87,0,*51
1519711499.44,7600,3.13,71502.3,-22.59,-27.77,-27.13,0,*5F
1519711500.68,7601,3.13,71502.8,-22.59,-27.77,-27.29,0,*57
1519711501.92,7602,3.13,71502.3,-22.59,-27.29,-27.13,0,*56
1519711503.18,7603,3.13,71500.8,-22.59,-26.97,-26.65,0,*53
1519711504.45,7604,3.13,71498.5,-22.59,-27.03,-26.81,0,*52
1519711505.71,7605,3.13,71496.8,-22.59,-27.13,-26.81,0,*52
1519711506.94,7606,3.13,71492.3,-22.59,-27.13,-26.65,0,*5B
1519711508.18,7607,3.13,71496.8,-22.59,-27.03,-26.61,0,*5F
1519711509.46,7608,3.13,71494.8,-22.59,-27.19,-26.81,0,*55
1519711510.7,7609,3.13,71498.3,-22.59,-27.29,-26.65,0,*5D
1519711511.96,7610,3.13,71492.0,-22.59,-27.19,-26.65,0,*56
1519711513.25,7611,3.13,71498.5,-22.59,-27.45,-26.81,0,*54
1519711514.51,7612,3.13,71496.5,-22.59,-27.45,-26.87,0,*51
1519711515.75,7613,3.13,71498.0,-22.59,-27.51,-27.03,0,*58
1519711517.04,7614,3.13,71498.8,-22.59,-27.61,-27.19,0,*57
1519711518.33,7615,3.13,71488.0,-22.59,-27.45,-27.19,0,*50
1519711519.59,7616,3.13,71490.3,-22.59,-27.51,-27.19,0,*56
1519711520.85,7617,3.13,71494.0,-22.59,-27.35,-27.03,0,*5E
1519711522.11,7618,3.13,71490.0,-22.59,-27.35,-27.03,0,*51
1519711523.38,7619,3.13,71470.8,-22.59,-27.29,-26.97,0,*51
1519711524.64,7620,3.13,71464.0,-22.59,-27.03,-26.81,0,*54
1519711525.91,7621,3.13,71478.0,-22.59,-26.97,-26.87,0,*5F
1519711527.14,7622,3.13,71478.0,-22.59,-26.87,-26.65,0,*51
1519711528.38,7623,3.13,71478.3,-22.59,-26.65,-26.49,0,*52
1519711529.64,7624,3.13,71494.0,-22.59,-26.49,-26.17,0,*50
1519711530.89,7625,3.13,71494.3,-22.59,-26.49,-26.03,0,*54
1519711532.16,7626,3.13,71492.5,-22.59,-26.65,-26.33,0,*5A
1519711533.45,7627,3.13,71498.0,-22.59,-26.97,-26.33,0,*56
1519711534.71,7628,3.13,71498.0,-22.59,-27.19,-26.49,0,*53
1519711535.99,7629,3.13,71492.0,-22.59,-27.35,-26.81,0,*58
1519711537.23,7630,3.13,71488.5,-22.59,-27.51,-27.03,0,*59
1519711538.49,7631,3.13,71484.8,-22.59,-27.45,-27.13,0,*5C
1519711539.78,7632,3.13,71490.0,-22.59,-27.45,-27.19,0,*55
1519711541.07,7633,3.13,71494.8,-22.59,-27.61,-27.45,0,*5B
1519711542.31,7634,3.13,71490.3,-22.59,-27.51,-27.29,0,*55
1519711543.55,7635,3.13,71484.8,-22.59,-27.51,-27.29,0,*54
1519711544.81,7636,3.13,71482.8,-22.59,-27.51,-27.19,0,*54
1519711546.05,7637,3.13,71482.3,-22.59,-27.51,-27.03,0,*5E
1519711547.28,7638,3.13,71490.5,-22.59,-27.51,-27.03,0,*51
1519711548.55,7639,3.13,71486.8,-22.59,-27.45,-27.03,0,*55
1519711549.81,7640,3.13,71476.8,-22.59,-27.13,-26.97,0,*54
1519711551.09,7641,3.13,71482.3,-22.59,-27.19,-26.97,0,*5F
1519711552.38,7642,3.13,71480.5,-22.59,-27.19,-26.81,0,*5B
1519711553.66,7643,3.13,71490.0,-22.59,-27.35,-26.81,0,*54
1519711554.9,7644,3.13,71492.8,-22.59,-27.67,-27.13,0,*5E
1519711556.16,7645,3.13,71486.5,-22.61,-27.89,-27.19,0,*5E
1519711557.44,7646,3.13,71490.3,-22.61,-27.83,-27.39,0,*55
1519711558.7,7647,3.13,71492.3,-22.63,-27.83,-27.39,0,*56
1519711559.95,7648,3.13,71488.3,-22.61,-27.67,-27.07,0,*5C
1519711561.21,7649,3.13,71490.5,-22.61,-27.39,-27.03,0,*52
1519711562.45,7650,3.13,71492.8,-22.61,-27.51,-27.03,0,*54
1519711563.69,7651,3.13,71490.3,-22.61,-27.55,-27.07,0,*55
1519711564.95,7652,3.13,71494.3,-22.61,-27.55,-27.19,0,*59
1519711566.19,7653,3.13,71498.3,-22.61,-27.51,-27.07,0,*53
1519711567.45,7654,3.13,71498.8,-22.61,-27.39,-27.07,0,*5A
1519711568.71,7655,3.13,71488.5,-22.61,-27.39,-27.07,0,*5B
1519711570.0,7656,3.13,71488.3,-22.61,-27.35,-26.93,0,*58
1519711571.26,7657,3.13,71496.5,-22.61,-27.35,-27.03,0,*51
1519711572.54,7658,3.13,71494.8,-22.61,-27.19,-26.93,0,*58
1519711573.8,7659,3.13,71488.3,-22.61,-27.03,-26.93,0,*52
1519711575.03,7660,3.13,71488.8,-22.61,-26.87,-26.87,0,*50
1519711576.3,7661,3.13,71498.3,-22.61,-26.81,-26.65,0,*5B
1519711577.59,7662,3.13,71498.0,-22.61,-26.81,-26.55,0,*5B
1519711578.83,7663,3.13,71492.8,-22.59,-26.65,-26.49,0,*56
1519711580.09,7664,3.13,71492.5,-22.59,-26.77,-26.45,0,*5E
1519711581.36,7665,3.13,71496.0,-22.59,-26.77,-26.45,0,*5F
1519711582.63,7666,3.13,71498.8,-22.59,-26.65,-26.33,0,*5E
1519711583.92,7667,3.13,71494.5,-22.59,-26.77,-26.29,0,*57
1519711585.19,7668,3.13,71496.3,-22.59,-26.87,-26.33,0,*5C
1519711586.42,7669,3.13,71498.3,-22.59,-27.03,-26.49,0,*5D
1519711587.66,7670,3.13,71496.5,-22.59,-27.29,-26.65,0,*53
1519711588.92,7671,3.13,71496.0,-22.59,-27.51,-26.97,0,*50
1519711590.17,7672,3.13,71500.3,-22.59,-27.77,-27.29,0,*53
1519711591.45,7673,3.13,71498.3,-22.59,-27.99,-27.45,0,*58
1519711592.73,7674,3.13,71490.0,-22.59,-27.99,-27.61,0,*59
1519711594.0,7675,3.13,71500.0,-22.59,-28.21,-27.77,0,*53
1519711595.27,7676,3.13,71496.3,-22.59,-28.37,-27.99,0,*57
1519711596.53,7677,3.13,71492.5,-22.59,-28.63,-28.15,0,*5C
1519711597.79,7678,3.13,71498.3,-22.59,-28.47,-28.15,0,*55
1519711599.04,7679,3.13,71492.0,-22.59,-28.53,-28.15,0,*51
1519711600.31,7680,3.13,71500.0,-22.59,-28.53,-28.05,0,*56
1519711601.59,7681,3.13,71496.5,-22.59,-28.47,-27.99,0,*58
1519711602.86,7682,3.13,71494.3,-22.59,-28.37,-27.99,0,*5C
1519711604.15,7683,3.13,71492.0,-22.59,-28.05,-27.83,0,*57
1519711605.41,7684,3.13,71496.3,-22.59,-27.83,-27.67,0,*5B
1519711606.66,7685,3.13,71502.0,-22.59,-27.83,-27.51,0,*5F
1519711607.93,7686,3.13,71500.0,-22.59,-28.15,-27.61,0,*5F
1519711609.19,7687,3.19,71506.5,-22.59,-28.31,-27.83,0,*54
1519711610.45,7688,3.13,71492.3,-22.59,-28.63,-28.37,0,*5C
1519711611.71,7689,3.13,71494.0,-22.59,-28.31,-27.99,0,*51
1519711612.97,7690,3.13,71496.3,-22.59,-27.89,-27.83,0,*5E
1519711614.26,7691,3.13,71496.3,-22.59,-27.83,-27.61,0,*59
1519711615.55,7692,3.13,71500.5,-22.59,-28.05,-27.61,0,*5B
1519711616.78,7693,3.13,71504.0,-22.59,-28.53,-27.77,0,*5E
1519711618.08,7694,3.13,71500.8,-22.59,-28.63,-27.99,0,*5A
1519711619.32,7695,3.13,71494.5,-22.59,-28.53,-28.15,0,*53
1519711620.59,7696,3.13,71492.5,-22.59,-28.63,-28.31,0,*55
1519711621.87,7697,3.13,71496.3,-22.59,-28.47,-28.05,0,*55
1519711623.16,7698,3.13,71498.5,-22.59,-28.47,-28.05,0,*5A
1519711624.45,7699,3.13,71496.3,-22.59,-28.21,-27.83,0,*5A
1519711625.71,7700,3.13,71496.3,-22.59,-28.21,-27.89,0,*51
1519711627.0,7701,3.13,71498.5,-22.59,-28.21,-27.83,0,*5A
1519711628.29,7702,3.13,71492.3,-22.59,-28.47,-28.05,0,*58
1519711629.56,7703,3.13,71494.3,-22.59,-28.37,-28.05,0,*5E
1519711630.82,7704,3.13,71498.5,-22.59,-28.37,-27.83,0,*58
1519711632.06,7705,3.13,71498.8,-22.59,-28.31,-27.89,0,*55
1519711633.32,7706,3.13,71488.8,-22.59,-28.37,-27.99,0,*51
1519711634.61,7707,3.13,71492.8,-22.59,-28.47,-27.99,0,*57
1519711635.84,7708,3.13,71492.0,-22.59,-28.31,-27.89,0,*58
1519711637.1,7709,3.13,71498.8,-22.59,-28.31,-27.83,0,*53
1519711638.36,7710,3.13,71498.8,-22.59,-28.31,-27.83,0,*5B
1519711639.65,7711,3.13,71488.8,-22.55,-28.47,-28.05,0,*56
1519711640.93,7712,3.13,71492.0,-22.55,-28.63,-28.15,0,*52
1519711642.18,7713,3.13,71492.5,-22.55,-28.37,-27.89,0,*58
1519711643.47,7714,3.13,71500.0,-22.59,-28.21,-27.83,0,*5E
1519711644.73,7715,3.13,71490.0,-22.55,-27.77,-27.61,0,*53
1519711645.98,7716,3.13,71490.0,-22.55,-27.67,-27.51,0,*52
1519711647.25,7717,3.13,71492.8,-22.55,-27.51,-27.35,0,*54
1519711648.49,7718,3.13,71498.3,-22.59,-27.51,-27.29,0,*5A
1519711649.75,7719,3.13,71498.8,-22.59,-27.67,-27.19,0,*5D
1519711651.01,7720,3.13,71504.3,-22.59,-27.77,-27.45,0,*5F
1519711652.31,7721,3.13,71502.3,-22.55,-28.05,-27.61,0,*5E
1519711653.57,7722,3.13,71494.3,-22.53,-28.43,-27.83,0,*55
1519711654.84,7723,3.13,71498.5,-22.53,-28.59,-28.25,0,*5C
1519711656.09,7724,3.13,71490.8,-22.55,-28.53,-28.31,0,*52
1519711657.34,7725,3.13,71494.5,-22.55,-28.53,-28.15,0,*55
1519711658.61,7726,3.13,71496.0,-22.55,-28.37,-27.99,0,*5F
1519711659.85,7727,3.13,71488.5,-22.53,-28.31,-27.83,0,*55
1519711661.14,7728,3.13,71488.3,-22.55,-28.05,-27.83,0,*5B
1519711662.41,7729,3.13,71488.5,-22.53,-27.99,-27.61,0,*5A
1519711663.67,7730,3.13,71494.0,-22.53,-27.99,-27.61,0,*52
1519711664.97,7731,3.13,71488.0,-22.55,-27.61,-27.45,0,*54
1519711666.23,7732,3.13,71492.0,-22.53,-27.45,-27.23,0,*57
1519711667.49,7733,3.13,71492.3,-22.53,-27.45,-27.23,0,*56
1519711668.71,7734,3.13,71486.3,-22.53,-27.93,-27.55,0,*5B
1519711669.94,7735,3.13,71494.8,-22.53,-27.77,-27.45,0,*51
1519711671.19,7736,3.13,71490.3,-22.53,-27.61,-27.29,0,*5F
1519711672.43,7737,3.13,71498.0,-22.53,-27.71,-27.23,0,*55
1519711673.69,7738,3.13,71496.0,-22.53,-27.99,-27.45,0,*5C
1519711674.95,7739,3.13,71488.3,-22.53,-28.25,-27.61,0,*53
1519711676.19,7740,3.13,71488.0,-22.55,-28.31,-27.77,0,*59
1519711677.43,7741,3.13,71494.3,-22.53,-28.25,-27.77,0,*5B
1519711678.64,7742,3.13,71492.3,-22.53,-28.31,-27.71,0,*5B
1519711679.88,7743,3.13,71494.0,-22.53,-28.15,-27.83,0,*51
1519711681.11,7744,3.13,71494.5,-22.53,-27.99,-27.77,0,*56
1519711682.33,7745,3.13,71492.3,-22.53,-27.93,-27.55,0,*5D
1519711683.56,7746,3.13,71484.8,-22.53,-27.55,-27.45,0,*55
1519711684.79,7747,3.13,71484.8,-22.53,-27.23,-27.13,0,*56
1519711686.06,7748,3.13,71490.8,-22.51,-27.07,-26.81,0,*57
1519711687.32,7749,3.13,71502.0,-22.51,-27.07,-26.81,0,*56
1519711688.58,7750,3.13,71496.8,-22.51,-27.13,-26.93,0,*58
1519711689.82,7751,3.13,71506.3,-22.49,-27.45,-27.03,0,*5B
1519711691.08,7752,3.13,71498.5,-22.51,-27.39,-27.07,0,*5E
1519711692.32,7753,3.13,71498.8,-22.51,-27.55,-27.13,0,*50
1519711693.55,7754,3.13,71500.0,-22.49,-27.55,-27.23,0,*5D
1519711694.81,7755,3.13,71494.8,-22.51,-27.77,-27.39,0,*5E
1519711696.05,7756,3.13,71496.8,-22.51,-27.93,-27.55,0,*5D
1519711697.3,7757,3.13,71498.3,-22.51,-27.83,-27.55,0,*5D
1519711698.54,7758,3.13,71494.0,-22.51,-27.93,-27.55,0,*53
1519711699.79,7759,3.13,71502.0,-22.51,-27.71,-27.45,0,*5F
1519711701.03,7760,3.13,71494.0,-22.51,-27.55,-27.13,0,*50
1519711702.29,7761,3.13,71498.8,-22.51,-27.45,-27.13,0,*50
1519711703.57,7762,3.13,71498.3,-22.51,-27.83,-27.39,0,*51
1519711704.85,7763,3.13,71498.0,-22.51,-27.83,-27.39,0,*50
1519711706.06,7764,3.13,71498.8,-22.49,-27.77,-27.51,0,*5B
1519711707.3,7765,3.13,71492.8,-22.51,-27.93,-27.55,0,*5D
1519711708.5,7766,3.13,71488.5,-22.49,-27.71,-27.51,0,*5F
1519711709.76,7767,3.13,71494.8,-22.51,-27.71,-27.45,0,*52
1519711711.01,7768,3.13,71492.0,-22.51,-27.77,-27.45,0,*5B
1519711712.25,7769,3.13,71492.3,-22.49,-27.71,-27.39,0,*5E
1519711713.48,7770,3.13,71498.3,-22.51,-27.93,-27.55,0,*59